Weather History for Highgate, VT

Change the Weather History Date:

Tuesday, February 26, 2013

  Actual Average (KPBG) Record (KPBG)
Temperature  
Mean Temperature 34 °F 25 °F  
Max Temperature 40 °F 34 °F 52 °F (1957)
Min Temperature 29 °F 15 °F -16 °F (1993)
Degree Days  
Heating Degree Days 30 40  
Month to date heating degree days 1155  
Since 1 July heating degree days 5531  
Moisture  
Dew Point 29 °F    
Average Humidity 80    
Maximum Humidity 96    
Minimum Humidity 58    
Precipitation  
Precipitation 0.00 in - 0.46 in (1960)
Month to date precipitation  
Year to date precipitation  
Sea Level Pressure  
Sea Level Pressure 30.25 in    
Wind  
Wind Speed 2 mph (East)    
Max Wind Speed 8 mph    
Max Gust Speed -    
Visibility 7 miles    
Events Snow    
T = Trace of Precipitation, MM = Missing Value Source: NWS Daily Summary

Daily Weather History Graph

Daily Weather History Graph

Search for Another Location

Airport:

Trip Planner

Search our weather history database for the weather conditions in past years. The results will help you decide how hot, cold, wet, or windy it might be!

Date:

Astronomy

Feb. 26, 2013 Rise Set
Actual Time 6:34 AM EST 5:36 PM EST
Civil Twilight 6:05 AM EST 6:05 PM EST
Nautical Twilight 5:31 AM EST 6:39 PM EST
Astronomical Twilight 4:57 AM EST 7:13 PM EST
Moon 6:55 PM EST (2/26) 6:31 AM EST (2/26)
Length of Visible Light 12h 00m
Length of Day
11h 01m
Full, 99% of the Moon is Illuminated
Feb 26
Full
Mar 4
Last Quarter
Mar 11
New
Mar 19
First Quarter
Mar 27
Full

Hourly Weather History & Observations

Time (EST) Temp. Windchill Dew Point Humidity Pressure Visibility Wind Dir Wind Speed Gust Speed Precip Events Conditions
12:15 AM 31.6 °F - 30.6 °F 96% 30.24 in 2.0 mi Calm Calm - N/A   Overcast
12:35 AM 31.6 °F - 30.6 °F 96% 30.24 in 2.0 mi Calm Calm - N/A   Overcast
12:55 AM 32.0 °F - 30.9 °F 96% 30.25 in 2.0 mi Calm Calm - N/A Snow Light Snow
1:15 AM 32.0 °F - 31.1 °F 96% 30.25 in 2.0 mi Calm Calm - N/A   Overcast
1:35 AM 32.0 °F - 31.1 °F 96% 30.26 in 1.5 mi Calm Calm - N/A   Overcast
1:55 AM 32.0 °F - 31.1 °F 96% 30.26 in 1.5 mi Calm Calm - N/A   Overcast
2:15 AM 32.0 °F - 31.1 °F 96% 30.25 in 1.0 mi Calm Calm - N/A Snow Light Snow
2:35 AM 32.0 °F - 30.9 °F 96% 30.26 in 1.2 mi Calm Calm - N/A   Overcast
2:55 AM 31.8 °F - 30.9 °F 96% 30.26 in 1.2 mi Calm Calm - N/A   Overcast
3:15 AM 29.7 °F - 28.4 °F 95% 30.27 in 1.5 mi Calm Calm - N/A   Overcast
3:35 AM 29.7 °F - 28.8 °F 96% 30.28 in 1.5 mi Calm Calm - N/A   Overcast
3:55 AM 30.2 °F - 29.3 °F 96% 30.28 in 1.5 mi Calm Calm - N/A   Overcast
4:15 AM 30.7 °F - 29.8 °F 96% 30.28 in 1.5 mi Calm Calm - N/A   Overcast
4:35 AM 30.7 °F - 29.8 °F 96% 30.28 in 1.5 mi Calm Calm - N/A   Overcast
4:55 AM 30.6 °F 27.1 °F 29.7 °F 96% 30.29 in 1.5 mi SE 3.5 mph - N/A   Overcast
5:15 AM 32.0 °F - 31.1 °F 96% 30.29 in 1.8 mi Calm Calm - N/A   Overcast
5:35 AM 32.0 °F - 31.1 °F 96% 30.30 in 2.0 mi Calm Calm - N/A   Overcast
5:55 AM 32.0 °F - 31.1 °F 96% 30.30 in 2.0 mi Calm Calm - N/A   Overcast
6:15 AM 30.6 °F - 29.7 °F 96% 30.30 in 1.8 mi Calm Calm - N/A   Overcast
6:35 AM 32.0 °F - 31.1 °F 96% 30.30 in 2.0 mi Calm Calm - N/A   Overcast
6:55 AM 32.0 °F - 31.1 °F 96% 30.30 in 1.2 mi Calm Calm - N/A   Overcast
7:15 AM 32.0 °F - 31.1 °F 96% 30.30 in 1.2 mi Calm Calm - N/A   Overcast
7:35 AM 32.0 °F - 31.1 °F 96% 30.30 in 1.2 mi Calm Calm - N/A   Overcast
7:55 AM 32.0 °F - 31.1 °F 96% 30.31 in 2.0 mi Calm Calm - N/A   Overcast
8:15 AM 32.0 °F 28.7 °F 31.1 °F 96% 30.31 in 2.5 mi SSE 3.5 mph - N/A   Overcast
8:35 AM 32.0 °F - 31.1 °F 96% 30.31 in 2.5 mi Calm Calm - N/A   Overcast
8:55 AM 32.0 °F - 30.9 °F 96% 30.32 in 3.0 mi Calm Calm - N/A   Overcast
9:15 AM 33.6 °F - 32.0 °F 94% 30.32 in 4.0 mi Calm Calm - N/A   Overcast
9:35 AM 34.3 °F 31.4 °F 31.6 °F 90% 30.32 in 5.0 mi SE 3.5 mph - N/A   Overcast
9:55 AM 36.5 °F - 32.2 °F 84% 30.31 in 7.0 mi Calm Calm - N/A   Overcast
10:15 AM 36.3 °F - 31.3 °F 82% 30.31 in 10.0 mi Calm Calm - N/A   Mostly Cloudy
10:35 AM 36.9 °F - 30.2 °F 77% 30.30 in 10.0 mi Calm Calm - N/A   Mostly Cloudy
10:55 AM 38.5 °F - 30.0 °F 72% 30.30 in 10.0 mi Calm Calm - N/A   Mostly Cloudy
11:15 AM 38.5 °F 34.1 °F 28.8 °F 68% 30.30 in 10.0 mi NE 5.8 mph - N/A   Mostly Cloudy
11:35 AM 38.8 °F 33.8 °F 28.4 °F 66% 30.30 in 10.0 mi ESE 6.9 mph - N/A   Mostly Cloudy
11:55 AM 39.4 °F - 27.5 °F 62% 30.30 in 10.0 mi Calm Calm - N/A   Mostly Cloudy
12:15 PM 39.4 °F 37.2 °F 27.7 °F 63% 30.29 in 10.0 mi ESE 3.5 mph - N/A   Mostly Cloudy
12:35 PM 39.4 °F - 27.3 °F 62% 30.29 in 10.0 mi Calm Calm - N/A   Overcast
12:55 PM 39.4 °F - 27.0 °F 61% 30.28 in 10.0 mi Calm Calm - N/A   Overcast
1:15 PM 40.5 °F - 26.6 °F 58% 30.28 in 10.0 mi Calm Calm - N/A   Overcast
1:35 PM 39.4 °F 37.2 °F 28.4 °F 65% 30.27 in 10.0 mi NW 3.5 mph - N/A   Overcast
1:55 PM 38.7 °F 36.3 °F 28.4 °F 67% 30.27 in 10.0 mi NW 3.5 mph - N/A   Overcast
2:15 PM 39.4 °F 37.2 °F 28.2 °F 64% 30.27 in 10.0 mi NNW 3.5 mph - N/A   Overcast
2:35 PM 39.2 °F 35.9 °F 28.0 °F 64% 30.26 in 10.0 mi North 4.6 mph - N/A   Overcast
2:55 PM 38.3 °F 34.8 °F 28.0 °F 67% 30.25 in 10.0 mi North 4.6 mph - N/A   Overcast
3:15 PM 36.9 °F 32.2 °F 28.0 °F 70% 30.24 in 10.0 mi North 5.8 mph - N/A   Overcast
3:35 PM 36.9 °F 32.2 °F 28.4 °F 71% 30.23 in 10.0 mi North 5.8 mph - N/A   Overcast
3:55 PM 38.3 °F 35.9 °F 29.1 °F 70% 30.22 in 10.0 mi NNE 3.5 mph - N/A   Overcast
4:15 PM 39.4 °F 33.8 °F 28.0 °F 64% 30.22 in 10.0 mi NE 8.1 mph - N/A   Overcast
4:35 PM 38.3 °F 33.9 °F 27.5 °F 65% 30.21 in 10.0 mi ENE 5.8 mph - N/A   Overcast
4:55 PM 36.9 °F 32.2 °F 27.3 °F 68% 30.21 in 10.0 mi ENE 5.8 mph - N/A   Overcast
5:15 PM 36.9 °F 32.2 °F 28.2 °F 71% 30.21 in 10.0 mi ENE 5.8 mph - N/A   Overcast
5:35 PM 36.9 °F 34.3 °F 28.4 °F 71% 30.21 in 10.0 mi East 3.5 mph - N/A   Overcast
6:15 PM 36.9 °F 34.3 °F 28.2 °F 71% 30.21 in 10.0 mi East 3.5 mph - N/A   Overcast
6:35 PM 36.9 °F 33.1 °F 27.1 °F 68% 30.21 in 10.0 mi ESE 4.6 mph - N/A   Overcast
7:15 PM 36.9 °F 30.7 °F 26.4 °F 66% 30.20 in 10.0 mi ESE 8.1 mph - N/A   Overcast
7:35 PM 36.9 °F 31.4 °F 26.4 °F 66% 30.20 in 10.0 mi ESE 6.9 mph - N/A   Overcast
8:15 PM 36.9 °F 32.2 °F 26.8 °F 67% 30.21 in 10.0 mi ESE 5.8 mph - N/A   Overcast
8:35 PM 36.9 °F 31.4 °F 27.3 °F 68% 30.21 in 10.0 mi ESE 6.9 mph - N/A   Overcast
8:55 PM 36.9 °F 31.4 °F 27.3 °F 68% 30.21 in 10.0 mi SE 6.9 mph - N/A   Overcast
9:15 PM 36.5 °F 31.0 °F 27.3 °F 69% 30.20 in 10.0 mi ESE 6.9 mph - N/A   Overcast
9:35 PM 36.5 °F 30.3 °F 27.3 °F 69% 30.18 in 10.0 mi ESE 8.1 mph - N/A   Overcast
9:55 PM 36.3 °F 30.8 °F 27.3 °F 70% 30.17 in 10.0 mi ESE 6.9 mph - N/A   Overcast
10:15 PM 34.9 °F 29.9 °F 26.2 °F 71% 30.17 in 10.0 mi ESE 5.8 mph - N/A   Overcast
10:35 PM 34.7 °F 28.8 °F 26.1 °F 71% 30.16 in 10.0 mi ESE 6.9 mph - N/A   Overcast
10:55 PM 36.3 °F 31.6 °F 26.6 °F 68% 30.15 in 10.0 mi ESE 5.8 mph - N/A   Overcast
11:15 PM 34.9 °F 28.3 °F 25.3 °F 68% 30.14 in 10.0 mi ESE 8.1 mph - N/A   Mostly Cloudy
11:35 PM 34.9 °F 28.3 °F 25.2 °F 68% 30.13 in 10.0 mi ESE 8.1 mph - N/A   Scattered Clouds
11:55 PM 34.7 °F 28.1 °F 24.8 °F 67% 30.11 in 10.0 mi ESE 8.1 mph - N/A   Clear